Anzahl Datensätze: 284
min. Temperatur: 1.2 °C
max. Temperatur: 4.9 °C
max. Windgeschwindigkeit: 37.4 km/h
Niederschlagsumme: 15.0 mm
| Datum |
Zeit |
Temp °C |
Feuchte % |
Taupunkt °C |
Luftdruck hPa |
Wind km/h |
Windrichtung |
Strahlung w/m² |
Niederschlag mm |
|---|---|---|---|---|---|---|---|---|---|
| 08.01.2025 | 00:01 | 4.9 | 85 | 2.6 | 1005.5 | 16.9 | SSW | 0 | 0.0 |
| 08.01.2025 | 00:07 | 4.9 | 85 | 2.6 | 1005.5 | 12.6 | SSW | 0 | 0.0 |
| 08.01.2025 | 00:12 | 4.9 | 86 | 2.8 | 1005.5 | 23.0 | SW | 0 | 0.0 |
| 08.01.2025 | 00:17 | 4.9 | 86 | 2.8 | 1005.5 | 8.3 | SSW | 0 | 0.2 |
| 08.01.2025 | 00:22 | 4.8 | 87 | 2.8 | 1005.5 | 12.6 | S | 0 | 0.2 |
| 08.01.2025 | 00:27 | 4.7 | 87 | 2.7 | 1005.4 | 21.2 | WSW | 0 | 0.2 |
| 08.01.2025 | 00:32 | 4.6 | 87 | 2.6 | 1005.3 | 8.3 | SSW | 0 | 0.2 |
| 08.01.2025 | 00:37 | 4.6 | 88 | 2.8 | 1005.3 | 12.6 | SSW | 0 | 0.2 |
| 08.01.2025 | 00:42 | 4.6 | 88 | 2.8 | 1005.4 | 25.2 | SSW | 0 | 0.2 |
| 08.01.2025 | 00:47 | 4.5 | 88 | 2.7 | 1005.4 | 14.4 | SSO | 0 | 0.2 |
| 08.01.2025 | 00:52 | 4.5 | 89 | 2.8 | 1005.4 | 14.4 | SSW | 0 | 0.4 |
| 08.01.2025 | 00:57 | 4.5 | 89 | 2.8 | 1005.4 | 14.4 | SSW | 0 | 0.4 |
| 08.01.2025 | 01:02 | 4.5 | 88 | 2.7 | 1005.4 | 12.6 | SW | 0 | 0.4 |
| 08.01.2025 | 01:07 | 4.5 | 89 | 2.8 | 1005.3 | 23.0 | SW | 0 | 0.4 |
| 08.01.2025 | 01:12 | 4.5 | 89 | 2.8 | 1005.3 | 12.6 | WSW | 0 | 0.4 |
| 08.01.2025 | 01:17 | 4.4 | 90 | 2.9 | 1005.4 | 18.7 | SSW | 0 | 0.6 |
| 08.01.2025 | 01:22 | 4.3 | 90 | 2.8 | 1005.4 | 10.4 | SSO | 0 | 0.6 |
| 08.01.2025 | 01:27 | 4.3 | 91 | 3.0 | 1005.4 | 12.6 | SW | 0 | 0.6 |
| 08.01.2025 | 01:32 | 4.3 | 91 | 3.0 | 1005.3 | 8.3 | WSW | 0 | 0.6 |
| 08.01.2025 | 01:37 | 4.3 | 92 | 3.1 | 1005.4 | 8.3 | S | 0 | 0.8 |
| 08.01.2025 | 01:42 | 4.3 | 92 | 3.1 | 1005.4 | 12.6 | SW | 0 | 0.8 |
| 08.01.2025 | 01:47 | 4.3 | 92 | 3.1 | 1005.3 | 10.4 | SW | 0 | 0.8 |
| 08.01.2025 | 01:52 | 4.3 | 92 | 3.1 | 1005.3 | 10.4 | SSW | 0 | 0.8 |
| 08.01.2025 | 01:57 | 4.2 | 92 | 3.0 | 1005.2 | 4.3 | SSW | 0 | 1.0 |
| 08.01.2025 | 02:02 | 4.2 | 92 | 3.0 | 1005.2 | 14.4 | SW | 0 | 1.0 |
| 08.01.2025 | 02:07 | 4.2 | 92 | 3.0 | 1005.2 | 8.3 | SSW | 0 | 1.0 |
| 08.01.2025 | 02:12 | 4.2 | 92 | 3.0 | 1005.1 | 6.1 | SW | 0 | 1.0 |
| 08.01.2025 | 02:17 | 4.2 | 92 | 3.0 | 1005.1 | 10.4 | SW | 0 | 1.2 |
| 08.01.2025 | 02:22 | 4.2 | 92 | 3.0 | 1005.3 | 8.3 | SW | 0 | 1.2 |
| 08.01.2025 | 02:27 | 4.1 | 93 | 3.1 | 1005.2 | 8.3 | SSW | 0 | 1.2 |
| 08.01.2025 | 02:32 | 4.1 | 92 | 2.9 | 1005.3 | 6.1 | SSW | 0 | 1.4 |
| 08.01.2025 | 02:37 | 4.1 | 93 | 3.1 | 1005.3 | 6.1 | SW | 0 | 1.4 |
| 08.01.2025 | 02:43 | 4.1 | 93 | 3.1 | 1005.3 | 6.1 | SW | 0 | 1.4 |
| 08.01.2025 | 02:48 | 4.1 | 93 | 3.1 | 1005.4 | 6.1 | SSW | 0 | 1.6 |
| 08.01.2025 | 02:53 | 4.0 | 93 | 3.0 | 1005.4 | 12.6 | SSW | 0 | 1.6 |
| 08.01.2025 | 02:58 | 4.0 | 93 | 3.0 | 1005.4 | 6.1 | SSW | 0 | 1.8 |
| 08.01.2025 | 03:03 | 4.0 | 93 | 3.0 | 1005.5 | 4.3 | SSW | 0 | 1.8 |
| 08.01.2025 | 03:08 | 4.0 | 93 | 3.0 | 1005.5 | 8.3 | S | 0 | 2.0 |
| 08.01.2025 | 03:13 | 3.9 | 94 | 3.0 | 1005.5 | 8.3 | SSW | 0 | 2.0 |
| 08.01.2025 | 03:18 | 3.9 | 94 | 3.0 | 1005.5 | 8.3 | S | 0 | 2.0 |
| 08.01.2025 | 03:23 | 3.9 | 94 | 3.0 | 1005.5 | 8.3 | S | 0 | 2.2 |
| 08.01.2025 | 03:28 | 3.9 | 94 | 3.0 | 1005.4 | 8.3 | SSW | 0 | 2.2 |
| 08.01.2025 | 03:33 | 3.9 | 94 | 3.0 | 1005.3 | 4.3 | SSW | 0 | 2.2 |
| 08.01.2025 | 03:38 | 3.9 | 94 | 3.0 | 1005.3 | 10.4 | SSW | 0 | 2.4 |
| 08.01.2025 | 03:43 | 3.9 | 94 | 3.0 | 1005.4 | 8.3 | SSW | 0 | 2.4 |
| 08.01.2025 | 03:48 | 3.9 | 94 | 3.0 | 1005.4 | 6.1 | SW | 0 | 2.4 |
| 08.01.2025 | 03:53 | 3.9 | 94 | 3.0 | 1005.3 | 10.4 | SSW | 0 | 2.4 |
| 08.01.2025 | 03:58 | 3.9 | 94 | 3.0 | 1005.3 | 4.3 | SSW | 0 | 2.4 |
| 08.01.2025 | 04:03 | 3.9 | 94 | 3.0 | 1005.4 | 8.3 | SSW | 0 | 2.6 |
| 08.01.2025 | 04:08 | 3.9 | 94 | 3.0 | 1005.4 | 6.1 | SSW | 0 | 2.6 |
| 08.01.2025 | 04:13 | 3.9 | 94 | 3.0 | 1005.4 | 6.1 | SSW | 0 | 2.6 |
| 08.01.2025 | 04:18 | 3.8 | 94 | 2.9 | 1005.4 | 8.3 | S | 0 | 2.6 |
| 08.01.2025 | 04:23 | 3.8 | 94 | 2.9 | 1005.5 | 6.1 | S | 0 | 2.6 |
| 08.01.2025 | 04:28 | 3.8 | 94 | 2.9 | 1005.5 | 4.3 | S | 0 | 2.6 |
| 08.01.2025 | 04:33 | 3.8 | 94 | 2.9 | 1005.5 | 6.1 | SSO | 0 | 2.6 |
| 08.01.2025 | 04:38 | 3.8 | 94 | 2.9 | 1005.6 | 6.1 | SSW | 0 | 2.6 |
| 08.01.2025 | 04:43 | 3.8 | 94 | 2.9 | 1005.7 | 6.1 | SSW | 0 | 2.6 |
| 08.01.2025 | 04:48 | 3.8 | 94 | 2.9 | 1005.8 | 8.3 | S | 0 | 2.6 |
| 08.01.2025 | 04:53 | 3.8 | 94 | 2.9 | 1005.8 | 6.1 | SSW | 0 | 2.8 |
| 08.01.2025 | 04:58 | 3.8 | 95 | 3.1 | 1005.9 | 1.8 | SW | 0 | 2.8 |
| 08.01.2025 | 05:03 | 3.8 | 95 | 3.1 | 1006.0 | 4.3 | SW | 0 | 2.8 |
| 08.01.2025 | 05:08 | 3.7 | 95 | 3.0 | 1006.1 | 4.3 | SSW | 0 | 2.8 |
| 08.01.2025 | 05:13 | 3.7 | 95 | 3.0 | 1006.1 | 6.1 | SSW | 0 | 2.8 |
| 08.01.2025 | 05:19 | 3.7 | 95 | 3.0 | 1006.1 | 6.1 | SW | 0 | 2.8 |
| 08.01.2025 | 05:24 | 3.7 | 95 | 3.0 | 1006.1 | 4.3 | SSW | 0 | 3.0 |
| 08.01.2025 | 05:29 | 3.7 | 95 | 3.0 | 1006.1 | 6.1 | S | 0 | 3.0 |
| 08.01.2025 | 05:34 | 3.7 | 95 | 3.0 | 1006.1 | 10.4 | SSW | 0 | 3.0 |
| 08.01.2025 | 05:39 | 3.6 | 95 | 2.9 | 1006.0 | 8.3 | SSW | 0 | 3.0 |
| 08.01.2025 | 05:44 | 3.6 | 95 | 2.9 | 1005.9 | 6.1 | SSW | 0 | 3.0 |
| 08.01.2025 | 05:49 | 3.6 | 95 | 2.9 | 1005.9 | 4.3 | SSW | 0 | 3.0 |
| 08.01.2025 | 05:54 | 3.6 | 95 | 2.9 | 1005.9 | 6.1 | SSW | 0 | 3.0 |
| 08.01.2025 | 05:59 | 3.5 | 95 | 2.8 | 1005.9 | 6.1 | S | 0 | 3.0 |
| 08.01.2025 | 06:04 | 3.4 | 95 | 2.7 | 1005.9 | 8.3 | SSW | 0 | 3.0 |
| 08.01.2025 | 06:09 | 3.4 | 95 | 2.7 | 1006.0 | 8.3 | SW | 0 | 3.0 |
| 08.01.2025 | 06:14 | 3.4 | 95 | 2.7 | 1006.1 | 6.1 | S | 0 | 3.0 |
| 08.01.2025 | 06:19 | 3.4 | 95 | 2.7 | 1006.2 | 6.1 | S | 0 | 3.0 |
| 08.01.2025 | 06:24 | 3.3 | 95 | 2.6 | 1006.3 | 6.1 | SSW | 0 | 3.0 |
| 08.01.2025 | 06:29 | 3.3 | 95 | 2.6 | 1006.3 | 8.3 | S | 0 | 3.0 |
| 08.01.2025 | 06:34 | 3.3 | 95 | 2.6 | 1006.3 | 1.8 | SSW | 0 | 3.0 |
| 08.01.2025 | 06:39 | 3.3 | 95 | 2.6 | 1006.3 | 1.8 | S | 0 | 3.0 |
| 08.01.2025 | 06:44 | 3.3 | 95 | 2.6 | 1006.2 | 8.3 | SSO | 0 | 3.0 |
| 08.01.2025 | 06:49 | 3.3 | 95 | 2.6 | 1006.2 | 6.1 | S | 0 | 3.0 |
| 08.01.2025 | 06:54 | 3.2 | 95 | 2.5 | 1006.2 | 4.3 | S | 0 | 3.0 |
| 08.01.2025 | 06:59 | 3.2 | 95 | 2.5 | 1006.4 | 10.4 | SSW | 0 | 3.0 |
| 08.01.2025 | 07:04 | 3.2 | 95 | 2.5 | 1006.3 | 6.1 | SW | 0 | 3.0 |
| 08.01.2025 | 07:09 | 3.2 | 95 | 2.5 | 1006.4 | 4.3 | SSW | 0 | 3.0 |
| 08.01.2025 | 07:14 | 3.2 | 95 | 2.5 | 1006.5 | 6.1 | SSW | 0 | 3.0 |
| 08.01.2025 | 07:19 | 3.2 | 95 | 2.5 | 1006.5 | 6.1 | SSW | 0 | 3.0 |
| 08.01.2025 | 07:24 | 3.2 | 95 | 2.5 | 1006.7 | 6.1 | SSW | 0 | 3.0 |
| 08.01.2025 | 07:29 | 3.1 | 95 | 2.4 | 1006.7 | 8.3 | S | 0 | 3.0 |
| 08.01.2025 | 07:34 | 3.2 | 95 | 2.5 | 1006.7 | 4.3 | SSW | 0 | 3.2 |
| 08.01.2025 | 07:39 | 3.1 | 95 | 2.4 | 1006.8 | 8.3 | SSW | 0 | 3.2 |
| 08.01.2025 | 07:44 | 3.1 | 95 | 2.4 | 1006.9 | 6.1 | SW | 0 | 3.2 |
| 08.01.2025 | 07:49 | 3.1 | 95 | 2.4 | 1007.0 | 6.1 | SSW | 0 | 3.2 |
| 08.01.2025 | 07:54 | 3.1 | 95 | 2.4 | 1007.0 | 10.4 | SW | 0 | 3.2 |
| 08.01.2025 | 07:59 | 3.1 | 95 | 2.4 | 1007.0 | 12.6 | S | 0 | 3.2 |
| 08.01.2025 | 08:04 | 3.1 | 95 | 2.4 | 1007.0 | 6.1 | SSW | 0 | 3.2 |
| 08.01.2025 | 08:10 | 3.1 | 95 | 2.4 | 1007.1 | 6.1 | S | 0 | 3.2 |
| 08.01.2025 | 08:15 | 3.1 | 95 | 2.4 | 1007.3 | 12.6 | S | 0 | 3.2 |
| 08.01.2025 | 08:20 | 3.1 | 95 | 2.4 | 1007.5 | 10.4 | SSW | 0 | 3.2 |
| 08.01.2025 | 08:25 | 3.1 | 95 | 2.4 | 1007.5 | 6.1 | SSW | 0 | 3.2 |
| 08.01.2025 | 08:30 | 3.1 | 95 | 2.4 | 1007.6 | 4.3 | SW | 5 | 3.2 |
| 08.01.2025 | 08:35 | 3.1 | 95 | 2.4 | 1007.6 | 6.1 | SSW | 0 | 3.2 |
| 08.01.2025 | 08:40 | 3.1 | 95 | 2.4 | 1007.6 | 8.3 | SSW | 5 | 3.2 |
| 08.01.2025 | 08:45 | 3.1 | 95 | 2.4 | 1007.7 | 6.1 | SSW | 5 | 3.2 |
| 08.01.2025 | 08:50 | 3.1 | 95 | 2.4 | 1008.0 | 6.1 | SW | 5 | 3.2 |
| 08.01.2025 | 08:55 | 3.1 | 95 | 2.4 | 1007.9 | 4.3 | SSW | 5 | 3.4 |
| 08.01.2025 | 09:00 | 3.1 | 95 | 2.4 | 1007.8 | 4.3 | SSW | 9 | 3.4 |
| 08.01.2025 | 09:05 | 3.1 | 95 | 2.4 | 1007.6 | 6.1 | SSW | 12 | 3.4 |
| 08.01.2025 | 09:10 | 3.1 | 95 | 2.4 | 1007.7 | 4.3 | SSW | 21 | 3.4 |
| 08.01.2025 | 09:15 | 3.2 | 95 | 2.5 | 1007.7 | 4.3 | S | 25 | 3.4 |
| 08.01.2025 | 09:20 | 3.1 | 95 | 2.4 | 1007.7 | 1.8 | SSW | 25 | 3.4 |
| 08.01.2025 | 09:25 | 3.2 | 95 | 2.5 | 1007.8 | 6.1 | SSW | 26 | 3.6 |
| 08.01.2025 | 09:30 | 3.2 | 95 | 2.5 | 1007.5 | 8.3 | S | 23 | 3.6 |
| 08.01.2025 | 09:35 | 3.2 | 95 | 2.5 | 1007.4 | 10.4 | SSW | 21 | 3.6 |
| 08.01.2025 | 09:40 | 3.2 | 95 | 2.5 | 1007.6 | 10.4 | SSW | 23 | 3.6 |
| 08.01.2025 | 09:45 | 3.2 | 95 | 2.5 | 1007.5 | 6.1 | S | 30 | 3.6 |
| 08.01.2025 | 09:50 | 3.2 | 95 | 2.5 | 1007.4 | 8.3 | SSO | 26 | 3.6 |
| 08.01.2025 | 09:55 | 3.3 | 95 | 2.6 | 1007.3 | 8.3 | S | 25 | 3.6 |
| 08.01.2025 | 10:00 | 3.2 | 95 | 2.5 | 1007.4 | 8.3 | S | 26 | 3.6 |
| 08.01.2025 | 10:05 | 3.2 | 95 | 2.5 | 1007.4 | 6.1 | SSW | 33 | 3.6 |
| 08.01.2025 | 10:10 | 3.3 | 95 | 2.6 | 1007.5 | 6.1 | S | 42 | 3.6 |
| 08.01.2025 | 10:15 | 3.2 | 95 | 2.5 | 1007.5 | 4.3 | SSW | 39 | 3.6 |
| 08.01.2025 | 10:20 | 3.3 | 95 | 2.6 | 1007.6 | 6.1 | SW | 42 | 3.6 |
| 08.01.2025 | 10:25 | 3.3 | 95 | 2.6 | 1007.6 | 4.3 | SSW | 40 | 3.6 |
| 08.01.2025 | 10:30 | 3.3 | 95 | 2.6 | 1007.6 | 6.1 | SSW | 37 | 3.6 |
| 08.01.2025 | 10:35 | 3.3 | 95 | 2.6 | 1007.6 | 6.1 | SSW | 40 | 3.6 |
| 08.01.2025 | 10:40 | 3.3 | 95 | 2.6 | 1007.6 | 6.1 | SSW | 46 | 3.6 |
| 08.01.2025 | 10:45 | 3.3 | 95 | 2.6 | 1007.6 | 4.3 | SSW | 37 | 3.6 |
| 08.01.2025 | 10:50 | 3.3 | 95 | 2.6 | 1007.5 | 4.3 | SSW | 40 | 3.6 |
| 08.01.2025 | 10:56 | 3.4 | 95 | 2.7 | 1007.6 | 6.1 | SSW | 39 | 3.6 |
| 08.01.2025 | 11:01 | 3.4 | 95 | 2.7 | 1007.6 | 4.3 | S | 40 | 3.8 |
| 08.01.2025 | 11:06 | 3.4 | 95 | 2.7 | 1007.6 | 8.3 | S | 44 | 3.8 |
| 08.01.2025 | 11:11 | 3.4 | 95 | 2.7 | 1007.5 | 4.3 | S | 47 | 3.8 |
| 08.01.2025 | 11:16 | 3.4 | 95 | 2.7 | 1007.5 | 8.3 | S | 56 | 3.8 |
| 08.01.2025 | 11:21 | 3.4 | 95 | 2.7 | 1007.4 | 8.3 | SSW | 70 | 3.8 |
| 08.01.2025 | 11:26 | 3.4 | 95 | 2.7 | 1007.5 | 10.4 | S | 62 | 3.8 |
| 08.01.2025 | 11:31 | 3.4 | 95 | 2.7 | 1007.5 | 10.4 | SSO | 65 | 4.0 |
| 08.01.2025 | 11:36 | 3.5 | 95 | 2.8 | 1007.3 | 8.3 | SSW | 69 | 4.0 |
| 08.01.2025 | 11:41 | 3.5 | 95 | 2.8 | 1007.3 | 8.3 | SW | 86 | 4.0 |
| 08.01.2025 | 11:46 | 3.6 | 94 | 2.7 | 1007.3 | 1.8 | SSW | 91 | 4.0 |
| 08.01.2025 | 11:51 | 3.6 | 94 | 2.7 | 1007.2 | 6.1 | SSW | 56 | 4.0 |
| 08.01.2025 | 11:56 | 3.5 | 94 | 2.6 | 1006.9 | 6.1 | S | 67 | 4.0 |
| 08.01.2025 | 12:01 | 3.6 | 94 | 2.7 | 1006.8 | 1.8 | S | 72 | 4.0 |
| 08.01.2025 | 12:06 | 3.6 | 94 | 2.7 | 1006.8 | 8.3 | S | 67 | 4.0 |
| 08.01.2025 | 12:11 | 3.6 | 95 | 2.9 | 1006.8 | 6.1 | S | 60 | 4.2 |
| 08.01.2025 | 12:21 | 3.6 | 95 | 2.9 | 1006.6 | 8.3 | S | 60 | 4.2 |
| 08.01.2025 | 12:26 | 3.6 | 95 | 2.9 | 1006.5 | 8.3 | S | 53 | 4.2 |
| 08.01.2025 | 12:31 | 3.6 | 94 | 2.7 | 1006.5 | 8.3 | SSO | 51 | 4.2 |
| 08.01.2025 | 12:36 | 3.6 | 94 | 2.7 | 1006.5 | 14.4 | S | 53 | 4.2 |
| 08.01.2025 | 12:41 | 3.6 | 94 | 2.7 | 1006.6 | 1.8 | S | 26 | 4.2 |
| 08.01.2025 | 12:46 | 3.6 | 94 | 2.7 | 1006.6 | 1.8 | SSW | 33 | 4.4 |
| 08.01.2025 | 12:51 | 3.5 | 94 | 2.6 | 1006.6 | 8.3 | S | 47 | 4.4 |
| 08.01.2025 | 12:56 | 3.5 | 94 | 2.6 | 1006.6 | 4.3 | SSO | 37 | 4.6 |
| 08.01.2025 | 13:01 | 3.5 | 94 | 2.6 | 1006.6 | 4.3 | SSO | 32 | 4.6 |
| 08.01.2025 | 13:06 | 3.4 | 94 | 2.5 | 1006.5 | 6.1 | S | 28 | 4.8 |
| 08.01.2025 | 13:11 | 3.3 | 94 | 2.4 | 1006.3 | 1.8 | S | 37 | 5.0 |
| 08.01.2025 | 13:21 | 3.2 | 93 | 2.2 | 1006.2 | 4.3 | SO | 42 | 5.4 |
| 08.01.2025 | 13:26 | 3.2 | 93 | 2.2 | 1006.1 | 4.3 | SO | 30 | 5.6 |
| 08.01.2025 | 13:31 | 3.1 | 93 | 2.1 | 1006.2 | 12.6 | SO | 26 | 5.8 |
| 08.01.2025 | 13:36 | 2.9 | 92 | 1.7 | 1006.3 | 6.1 | SSW | 30 | 6.0 |
| 08.01.2025 | 13:41 | 2.8 | 93 | 1.8 | 1006.2 | 4.3 | SSO | 39 | 6.2 |
| 08.01.2025 | 13:47 | 2.8 | 93 | 1.8 | 1006.1 | 1.8 | OSO | 44 | 6.2 |
| 08.01.2025 | 13:52 | 2.8 | 93 | 1.8 | 1006.0 | 1.8 | SO | 30 | 6.4 |
| 08.01.2025 | 13:57 | 2.7 | 93 | 1.7 | 1005.8 | 6.1 | O | 28 | 6.6 |
| 08.01.2025 | 14:02 | 2.6 | 93 | 1.6 | 1005.8 | 4.3 | O | 23 | 6.6 |
| 08.01.2025 | 14:07 | 2.6 | 93 | 1.6 | 1005.7 | 4.3 | ONO | 23 | 6.8 |
| 08.01.2025 | 14:12 | 2.4 | 93 | 1.4 | 1005.8 | 1.8 | O | 21 | 7.0 |
| 08.01.2025 | 14:17 | 2.3 | 93 | 1.3 | 1005.7 | 4.3 | O | 25 | 7.2 |
| 08.01.2025 | 14:22 | 2.2 | 93 | 1.2 | 1005.7 | 4.3 | OSO | 21 | 7.4 |
| 08.01.2025 | 14:27 | 2.2 | 93 | 1.2 | 1005.4 | 1.8 | NO | 23 | 7.6 |
| 08.01.2025 | 14:32 | 2.1 | 93 | 1.1 | 1005.6 | 0.0 | NO | 19 | 7.8 |
| 08.01.2025 | 14:37 | 2.1 | 93 | 1.1 | 1005.5 | 0.0 | NNO | 19 | 8.0 |
| 08.01.2025 | 14:42 | 1.9 | 93 | 0.9 | 1005.5 | 4.3 | NO | 19 | 8.0 |
| 08.01.2025 | 14:47 | 1.8 | 93 | 0.8 | 1005.5 | 6.1 | N | 19 | 8.2 |
| 08.01.2025 | 14:52 | 1.8 | 93 | 0.8 | 1005.5 | 4.3 | N | 16 | 8.4 |
| 08.01.2025 | 14:57 | 1.7 | 93 | 0.7 | 1005.4 | 4.3 | NNO | 18 | 8.4 |
| 08.01.2025 | 15:02 | 1.6 | 93 | 0.6 | 1005.4 | 1.8 | NNO | 18 | 8.6 |
| 08.01.2025 | 15:07 | 1.5 | 94 | 0.6 | 1005.1 | 6.1 | N | 21 | 8.8 |
| 08.01.2025 | 15:12 | 1.4 | 94 | 0.5 | 1005.1 | 1.8 | N | 25 | 8.8 |
| 08.01.2025 | 15:17 | 1.3 | 94 | 0.4 | 1005.1 | 6.1 | ONO | 28 | 9.0 |
| 08.01.2025 | 15:22 | 1.3 | 94 | 0.4 | 1005.1 | 6.1 | NO | 23 | 9.0 |
| 08.01.2025 | 15:27 | 1.2 | 94 | 0.3 | 1005.4 | 1.8 | N | 16 | 9.2 |
| 08.01.2025 | 15:32 | 1.2 | 94 | 0.3 | 1005.2 | 4.3 | NO | 18 | 9.2 |
| 08.01.2025 | 15:37 | 1.2 | 95 | 0.5 | 1004.9 | 8.3 | O | 16 | 9.4 |
| 08.01.2025 | 15:42 | 1.2 | 95 | 0.5 | 1005.2 | 8.3 | ONO | 19 | 9.6 |
| 08.01.2025 | 15:47 | 1.2 | 95 | 0.5 | 1005.1 | 8.3 | NNO | 11 | 9.8 |
| 08.01.2025 | 15:52 | 1.2 | 95 | 0.5 | 1004.8 | 10.4 | NNO | 16 | 10.0 |
| 08.01.2025 | 15:57 | 1.2 | 95 | 0.5 | 1005.1 | 6.1 | NNW | 9 | 10.2 |
| 08.01.2025 | 16:02 | 1.3 | 95 | 0.6 | 1005.0 | 0.0 | NNO | 7 | 10.4 |
| 08.01.2025 | 16:07 | 1.3 | 95 | 0.6 | 1004.8 | 6.1 | NO | 5 | 10.6 |
| 08.01.2025 | 16:12 | 1.3 | 95 | 0.6 | 1004.6 | 6.1 | NO | 0 | 10.8 |
| 08.01.2025 | 16:17 | 1.3 | 95 | 0.6 | 1004.5 | 10.4 | NO | 0 | 11.0 |
| 08.01.2025 | 16:22 | 1.3 | 95 | 0.6 | 1004.3 | 8.3 | ONO | 0 | 11.2 |
| 08.01.2025 | 16:27 | 1.4 | 96 | 0.8 | 1004.2 | 12.6 | NO | 0 | 11.4 |
| 08.01.2025 | 16:33 | 1.4 | 96 | 0.8 | 1004.2 | 6.1 | NO | 0 | 11.6 |
| 08.01.2025 | 16:38 | 1.4 | 96 | 0.8 | 1004.3 | 4.3 | N | 0 | 11.6 |
| 08.01.2025 | 16:43 | 1.4 | 96 | 0.8 | 1004.2 | 6.1 | N | 0 | 11.8 |
| 08.01.2025 | 16:48 | 1.5 | 96 | 0.9 | 1004.2 | 6.1 | NNW | 0 | 12.0 |
| 08.01.2025 | 16:53 | 1.4 | 96 | 0.8 | 1004.2 | 4.3 | N | 0 | 12.0 |
| 08.01.2025 | 16:58 | 1.5 | 96 | 0.9 | 1004.1 | 4.3 | NNO | 0 | 12.2 |
| 08.01.2025 | 17:03 | 1.5 | 96 | 0.9 | 1004.0 | 10.4 | N | 0 | 12.2 |
| 08.01.2025 | 17:08 | 1.5 | 96 | 0.9 | 1004.0 | 6.1 | N | 0 | 12.4 |
| 08.01.2025 | 17:13 | 1.4 | 96 | 0.8 | 1004.0 | 6.1 | NNW | 0 | 12.6 |
| 08.01.2025 | 17:18 | 1.4 | 96 | 0.8 | 1003.8 | 1.8 | NNO | 0 | 12.6 |
| 08.01.2025 | 17:23 | 1.4 | 96 | 0.8 | 1004.1 | 6.1 | NNW | 0 | 12.8 |
| 08.01.2025 | 17:28 | 1.4 | 96 | 0.8 | 1003.8 | 8.3 | N | 0 | 13.0 |
| 08.01.2025 | 17:33 | 1.4 | 96 | 0.8 | 1003.6 | 8.3 | NW | 0 | 13.2 |
| 08.01.2025 | 17:38 | 1.4 | 96 | 0.8 | 1003.6 | 10.4 | NO | 0 | 13.2 |
| 08.01.2025 | 17:43 | 1.4 | 96 | 0.8 | 1003.5 | 8.3 | NO | 0 | 13.2 |
| 08.01.2025 | 17:48 | 1.4 | 96 | 0.8 | 1003.4 | 1.8 | NW | 0 | 13.4 |
| 08.01.2025 | 17:53 | 1.4 | 96 | 0.8 | 1003.5 | 6.1 | NNW | 0 | 13.4 |
| 08.01.2025 | 17:58 | 1.4 | 96 | 0.8 | 1003.5 | 16.9 | N | 0 | 13.4 |
| 08.01.2025 | 18:03 | 1.4 | 96 | 0.8 | 1003.5 | 4.3 | NO | 0 | 13.4 |
| 08.01.2025 | 18:08 | 1.4 | 96 | 0.8 | 1003.5 | 0.0 | NNO | 0 | 13.4 |
| 08.01.2025 | 18:13 | 1.4 | 96 | 0.8 | 1003.6 | 12.6 | N | 0 | 13.4 |
| 08.01.2025 | 18:18 | 1.4 | 96 | 0.8 | 1003.4 | 4.3 | NNO | 0 | 13.4 |
| 08.01.2025 | 18:23 | 1.5 | 96 | 0.9 | 1003.3 | 8.3 | NO | 0 | 13.4 |
| 08.01.2025 | 18:28 | 1.4 | 96 | 0.8 | 1003.5 | 6.1 | N | 0 | 13.4 |
| 08.01.2025 | 18:33 | 1.4 | 96 | 0.8 | 1003.2 | 4.3 | NNO | 0 | 13.4 |
| 08.01.2025 | 18:38 | 1.5 | 96 | 0.9 | 1003.3 | 1.8 | NNW | 0 | 13.4 |
| 08.01.2025 | 18:43 | 1.5 | 96 | 0.9 | 1003.1 | 4.3 | NNW | 0 | 13.4 |
| 08.01.2025 | 18:48 | 1.5 | 96 | 0.9 | 1003.0 | 6.1 | N | 0 | 13.4 |
| 08.01.2025 | 18:53 | 1.6 | 96 | 1.0 | 1003.0 | 1.8 | N | 0 | 13.4 |
| 08.01.2025 | 18:58 | 1.6 | 96 | 1.0 | 1002.8 | 1.8 | N | 0 | 13.4 |
| 08.01.2025 | 19:03 | 1.5 | 96 | 0.9 | 1002.8 | 0.0 | N | 0 | 13.4 |
| 08.01.2025 | 19:08 | 1.6 | 96 | 1.0 | 1002.7 | 0.0 | N | 0 | 13.4 |
| 08.01.2025 | 19:13 | 1.6 | 96 | 1.0 | 1002.4 | 4.3 | N | 0 | 13.4 |
| 08.01.2025 | 19:18 | 1.6 | 96 | 1.0 | 1002.4 | 4.3 | N | 0 | 13.4 |
| 08.01.2025 | 19:24 | 1.6 | 96 | 1.0 | 1002.4 | 4.3 | N | 0 | 13.4 |
| 08.01.2025 | 19:29 | 1.6 | 96 | 1.0 | 1002.2 | 0.0 | N | 0 | 13.4 |
| 08.01.2025 | 19:34 | 1.6 | 96 | 1.0 | 1002.2 | 6.1 | N | 0 | 13.4 |
| 08.01.2025 | 19:39 | 1.6 | 96 | 1.0 | 1002.2 | 4.3 | N | 0 | 13.4 |
| 08.01.2025 | 19:44 | 1.6 | 96 | 1.0 | 1002.0 | 1.8 | NNW | 0 | 13.4 |
| 08.01.2025 | 19:49 | 1.6 | 96 | 1.0 | 1002.0 | 1.8 | NNW | 0 | 13.4 |
| 08.01.2025 | 19:54 | 1.5 | 96 | 0.9 | 1002.0 | 4.3 | NNW | 0 | 13.4 |
| 08.01.2025 | 19:59 | 1.6 | 96 | 1.0 | 1001.9 | 0.0 | NNW | 0 | 13.4 |
| 08.01.2025 | 20:04 | 1.6 | 96 | 1.0 | 1001.9 | 0.0 | NW | 0 | 13.4 |
| 08.01.2025 | 20:09 | 1.6 | 96 | 1.0 | 1001.8 | 0.0 | NW | 0 | 13.4 |
| 08.01.2025 | 20:14 | 1.6 | 96 | 1.0 | 1001.7 | 4.3 | WNW | 0 | 13.4 |
| 08.01.2025 | 20:19 | 1.6 | 96 | 1.0 | 1001.6 | 0.0 | NW | 0 | 13.4 |
| 08.01.2025 | 20:24 | 1.6 | 96 | 1.0 | 1001.6 | 6.1 | WNW | 0 | 13.4 |
| 08.01.2025 | 20:29 | 1.6 | 96 | 1.0 | 1001.5 | 0.0 | WNW | 0 | 13.4 |
| 08.01.2025 | 20:34 | 1.6 | 96 | 1.0 | 1001.5 | 4.3 | W | 0 | 13.4 |
| 08.01.2025 | 20:39 | 1.6 | 96 | 1.0 | 1001.2 | 0.0 | WNW | 0 | 13.4 |
| 08.01.2025 | 20:44 | 1.6 | 96 | 1.0 | 1001.1 | 1.8 | WNW | 0 | 13.6 |
| 08.01.2025 | 20:49 | 1.6 | 96 | 1.0 | 1001.1 | 4.3 | WNW | 0 | 13.6 |
| 08.01.2025 | 20:54 | 1.5 | 96 | 0.9 | 1001.0 | 0.0 | W | 0 | 13.6 |
| 08.01.2025 | 20:59 | 1.5 | 96 | 0.9 | 1001.0 | 0.0 | W | 0 | 13.6 |
| 08.01.2025 | 21:04 | 1.4 | 96 | 0.8 | 1001.1 | 0.0 | W | 0 | 13.6 |
| 08.01.2025 | 21:09 | 1.4 | 96 | 0.8 | 1001.0 | 1.8 | W | 0 | 13.6 |
| 08.01.2025 | 21:14 | 1.4 | 96 | 0.8 | 1000.9 | 0.0 | W | 0 | 13.6 |
| 08.01.2025 | 21:19 | 1.4 | 96 | 0.8 | 1000.8 | 0.0 | WSW | 0 | 13.6 |
| 08.01.2025 | 21:24 | 1.4 | 96 | 0.8 | 1000.6 | 4.3 | WNW | 0 | 13.6 |
| 08.01.2025 | 21:29 | 1.4 | 96 | 0.8 | 1000.7 | 6.1 | N | 0 | 13.6 |
| 08.01.2025 | 21:34 | 1.4 | 96 | 0.8 | 1000.6 | 6.1 | W | 0 | 13.6 |
| 08.01.2025 | 21:39 | 1.4 | 96 | 0.8 | 1000.6 | 4.3 | W | 0 | 13.6 |
| 08.01.2025 | 21:44 | 1.4 | 96 | 0.8 | 1000.4 | 0.0 | WNW | 0 | 13.6 |
| 08.01.2025 | 21:49 | 1.4 | 96 | 0.8 | 1000.3 | 0.0 | WNW | 0 | 13.6 |
| 08.01.2025 | 21:54 | 1.4 | 96 | 0.8 | 1000.2 | 0.0 | WNW | 0 | 13.6 |
| 08.01.2025 | 21:59 | 1.3 | 96 | 0.7 | 1000.1 | 0.0 | WNW | 0 | 13.6 |
| 08.01.2025 | 22:04 | 1.3 | 96 | 0.7 | 1000.1 | 0.0 | WNW | 0 | 13.6 |
| 08.01.2025 | 22:10 | 1.4 | 96 | 0.8 | 1000.1 | 0.0 | WNW | 0 | 13.6 |
| 08.01.2025 | 22:15 | 1.3 | 96 | 0.7 | 1000.2 | 1.8 | WSW | 0 | 13.6 |
| 08.01.2025 | 22:20 | 1.4 | 96 | 0.8 | 1000.2 | 0.0 | S | 0 | 13.6 |
| 08.01.2025 | 22:25 | 1.4 | 96 | 0.8 | 1000.1 | 0.0 | S | 0 | 13.8 |
| 08.01.2025 | 22:30 | 1.4 | 96 | 0.8 | 1000.2 | 0.0 | SW | 0 | 13.8 |
| 08.01.2025 | 22:35 | 1.4 | 96 | 0.8 | 1000.3 | 0.0 | SW | 0 | 13.8 |
| 08.01.2025 | 22:40 | 1.4 | 96 | 0.8 | 1000.3 | 1.8 | SW | 0 | 14.0 |
| 08.01.2025 | 22:45 | 1.4 | 96 | 0.8 | 1000.4 | 1.8 | SW | 0 | 14.2 |
| 08.01.2025 | 22:50 | 1.5 | 96 | 0.9 | 1000.4 | 1.8 | SSW | 0 | 14.4 |
| 08.01.2025 | 22:55 | 1.5 | 96 | 0.9 | 1000.2 | 4.3 | SSW | 0 | 14.4 |
| 08.01.2025 | 23:00 | 1.6 | 96 | 1.0 | 1000.3 | 6.1 | SSW | 0 | 14.6 |
| 08.01.2025 | 23:05 | 1.8 | 97 | 1.4 | 1000.3 | 6.1 | SSW | 0 | 14.8 |
| 08.01.2025 | 23:10 | 1.9 | 97 | 1.5 | 1000.2 | 6.1 | SSW | 0 | 15.0 |
| 08.01.2025 | 23:15 | 2.0 | 97 | 1.6 | 1000.1 | 8.3 | SSW | 0 | 15.0 |
| 08.01.2025 | 23:20 | 2.1 | 97 | 1.7 | 999.8 | 10.4 | S | 0 | 15.0 |
| 08.01.2025 | 23:25 | 2.2 | 97 | 1.8 | 999.7 | 8.3 | S | 0 | 15.0 |
| 08.01.2025 | 23:30 | 2.2 | 97 | 1.8 | 999.6 | 12.6 | SSW | 0 | 15.0 |
| 08.01.2025 | 23:35 | 2.3 | 97 | 1.9 | 999.5 | 16.9 | SSW | 0 | 15.0 |
| 08.01.2025 | 23:40 | 2.3 | 97 | 1.9 | 999.5 | 4.3 | S | 0 | 15.0 |
| 08.01.2025 | 23:45 | 2.4 | 97 | 2.0 | 999.6 | 1.8 | S | 0 | 15.0 |
| 08.01.2025 | 23:50 | 2.4 | 97 | 2.0 | 999.7 | 10.4 | S | 0 | 15.0 |
| 08.01.2025 | 23:55 | 2.5 | 97 | 2.1 | 999.8 | 8.3 | SSW | 0 | 15.0 |